TimeCDT,TemperatureF,Dew PointF,Humidity,Sea Level PressureIn,VisibilityMPH,Wind Direction,Wind SpeedMPH,Gust SpeedMPH,PrecipitationIn,Events,Conditions,WindDirDegrees,DateUTC
12:15 AM,33.8,28.4,81,29.89,10.0,West,5.8,-,N/A,,Mostly Cloudy,260,2012-10-10 05:15:00
12:35 AM,33.8,28.4,81,29.90,10.0,WSW,4.6,-,N/A,,Mostly Cloudy,250,2012-10-10 05:35:00
12:55 AM,32.0,26.6,80,29.90,10.0,WSW,3.5,-,N/A,,Overcast,250,2012-10-10 05:55:00
1:15 AM,32.0,28.4,87,29.90,10.0,WSW,5.8,-,N/A,,Mostly Cloudy,240,2012-10-10 06:15:00
1:35 AM,33.8,28.4,81,29.91,10.0,WSW,4.6,-,N/A,,Overcast,240,2012-10-10 06:35:00
1:55 AM,32.0,28.4,87,29.91,10.0,West,4.6,-,N/A,,Mostly Cloudy,260,2012-10-10 06:55:00
2:15 AM,30.2,26.6,86,29.91,10.0,WSW,5.8,-,N/A,,Mostly Cloudy,250,2012-10-10 07:15:00
2:35 AM,30.2,26.6,86,29.91,10.0,WSW,5.8,-,N/A,,Scattered Clouds,250,2012-10-10 07:35:00
2:55 AM,30.2,26.6,86,29.91,10.0,West,4.6,-,N/A,,Scattered Clouds,260,2012-10-10 07:55:00
3:15 AM,32.0,28.4,87,29.92,10.0,WNW,6.9,-,N/A,,Mostly Cloudy,290,2012-10-10 08:15:00
3:35 AM,33.8,30.2,87,29.91,4.0,West,6.9,-,N/A,Snow,Light Snow,270,2012-10-10 08:35:00
3:55 AM,32.0,30.2,93,29.92,10.0,WSW,5.8,-,N/A,,Overcast,250,2012-10-10 08:55:00
4:15 AM,30.2,30.2,100,29.92,10.0,SW,5.8,-,N/A,,Mostly Cloudy,230,2012-10-10 09:15:00
4:35 AM,32.0,28.4,87,29.93,10.0,SW,5.8,-,N/A,,Overcast,230,2012-10-10 09:35:00
4:55 AM,32.0,28.4,87,29.93,10.0,SW,5.8,-,N/A,,Overcast,220,2012-10-10 09:55:00
5:15 AM,30.2,28.4,93,29.94,10.0,SW,5.8,-,N/A,,Overcast,220,2012-10-10 10:15:00
5:35 AM,30.2,28.4,93,29.94,10.0,SW,4.6,-,N/A,,Mostly Cloudy,230,2012-10-10 10:35:00
5:55 AM,30.2,26.6,86,29.94,10.0,SW,4.6,-,N/A,,Mostly Cloudy,230,2012-10-10 10:55:00
6:15 AM,28.4,26.6,93,29.95,10.0,SW,4.6,-,N/A,,Mostly Cloudy,220,2012-10-10 11:15:00
6:35 AM,30.2,26.6,86,29.96,10.0,SSW,4.6,-,N/A,,Overcast,210,2012-10-10 11:35:00
6:55 AM,28.4,26.6,93,29.96,10.0,SW,3.5,-,N/A,,Scattered Clouds,220,2012-10-10 11:55:00
7:15 AM,28.4,26.6,93,29.97,10.0,WSW,3.5,-,N/A,,Clear,250,2012-10-10 12:15:00
7:55 AM,30.2,28.4,93,29.97,10.0,WSW,6.9,-,N/A,,Scattered Clouds,250,2012-10-10 12:55:00
8:35 AM,33.8,30.2,87,29.98,10.0,West,6.9,-,N/A,,Clear,260,2012-10-10 13:35:00
8:55 AM,37.4,30.2,75,29.99,10.0,West,4.6,-,N/A,,Scattered Clouds,280,2012-10-10 13:55:00
9:15 AM,37.4,30.2,75,29.99,10.0,West,4.6,-,N/A,,Scattered Clouds,280,2012-10-10 14:15:00
9:35 AM,37.4,-9999,N/A,30.00,-9999.0,West,6.9,-,N/A,,Unknown,270,2012-10-10 14:35:00
9:55 AM,37.4,30.2,75,30.00,10.0,West,10.4,-,N/A,,Overcast,270,2012-10-10 14:55:00
10:15 AM,39.2,30.2,70,30.00,10.0,West,5.8,-,N/A,,Overcast,260,2012-10-10 15:15:00
10:35 AM,41.0,30.2,65,30.00,10.0,WNW,6.9,-,N/A,,Mostly Cloudy,290,2012-10-10 15:35:00
10:55 AM,42.8,28.4,57,30.01,10.0,WNW,8.1,-,N/A,,Scattered Clouds,300,2012-10-10 15:55:00
11:15 AM,41.0,28.4,61,30.01,10.0,NW,9.2,-,N/A,,Scattered Clouds,320,2012-10-10 16:15:00
11:55 AM,44.6,26.6,49,30.01,10.0,NNW,8.1,-,N/A,,Mostly Cloudy,330,2012-10-10 16:55:00
12:15 PM,44.6,26.6,49,30.00,10.0,West,9.2,-,N/A,,Overcast,270,2012-10-10 17:15:00
12:35 PM,44.6,24.8,46,30.00,10.0,West,9.2,-,N/A,,Mostly Cloudy,270,2012-10-10 17:35:00
12:55 PM,42.8,24.8,49,29.99,10.0,West,5.8,-,N/A,,Mostly Cloudy,280,2012-10-10 17:55:00
1:15 PM,44.6,24.8,46,29.98,10.0,West,5.8,-,N/A,,Mostly Cloudy,260,2012-10-10 18:15:00
1:35 PM,44.6,23.0,43,29.98,10.0,West,6.9,-,N/A,,Scattered Clouds,280,2012-10-10 18:35:00
1:55 PM,46.4,21.2,37,29.97,10.0,West,10.4,-,N/A,,Mostly Cloudy,280,2012-10-10 18:55:00
2:15 PM,46.4,21.2,37,29.97,10.0,West,12.7,-,N/A,,Mostly Cloudy,280,2012-10-10 19:15:00
2:35 PM,48.2,21.2,34,29.96,10.0,West,11.5,18.4,N/A,,Mostly Cloudy,280,2012-10-10 19:35:00
2:55 PM,48.2,21.2,34,29.97,10.0,WNW,13.8,20.7,N/A,,Mostly Cloudy,290,2012-10-10 19:55:00
3:15 PM,46.4,21.2,37,29.97,10.0,West,12.7,17.3,N/A,,Mostly Cloudy,260,2012-10-10 20:15:00
3:35 PM,46.4,21.2,37,29.96,10.0,West,10.4,-,N/A,,Overcast,270,2012-10-10 20:35:00
3:55 PM,48.2,21.2,34,29.95,10.0,West,11.5,-,N/A,,Overcast,260,2012-10-10 20:55:00
4:15 PM,46.4,21.2,37,29.95,10.0,West,12.7,18.4,N/A,,Mostly Cloudy,260,2012-10-10 21:15:00
4:35 PM,48.2,23.0,37,29.94,10.0,WSW,10.4,-,N/A,,Scattered Clouds,250,2012-10-10 21:35:00
4:55 PM,46.4,23.0,40,29.94,10.0,WSW,12.7,16.1,N/A,,Scattered Clouds,250,2012-10-10 21:55:00
5:15 PM,46.4,21.2,37,29.94,10.0,WSW,8.1,-,N/A,,Scattered Clouds,250,2012-10-10 22:15:00
5:35 PM,46.4,21.2,37,29.94,10.0,SW,5.8,-,N/A,,Clear,230,2012-10-10 22:35:00
5:55 PM,46.4,23.0,40,29.94,10.0,WSW,5.8,-,N/A,,Clear,250,2012-10-10 22:55:00
6:15 PM,46.4,23.0,40,29.93,10.0,SW,3.5,-,N/A,,Clear,230,2012-10-10 23:15:00
6:35 PM,44.6,23.0,43,29.93,10.0,SW,4.6,-,N/A,,Clear,230,2012-10-10 23:35:00
6:55 PM,44.6,24.8,46,29.93,10.0,WSW,3.5,-,N/A,,Clear,240,2012-10-10 23:55:00
7:15 PM,42.8,24.8,49,29.93,10.0,Calm,Calm,-,N/A,,Mostly Cloudy,0,2012-10-11 00:15:00
7:35 PM,42.8,26.6,53,29.93,10.0,Calm,Calm,-,N/A,,Mostly Cloudy,0,2012-10-11 00:35:00
7:55 PM,44.6,24.8,46,29.93,10.0,SW,3.5,-,N/A,,Overcast,220,2012-10-11 00:55:00
8:15 PM,44.6,24.8,46,29.94,10.0,WSW,10.4,-,N/A,,Overcast,250,2012-10-11 01:15:00
8:35 PM,44.6,26.6,49,29.94,10.0,West,9.2,-,N/A,,Mostly Cloudy,260,2012-10-11 01:35:00
8:55 PM,44.6,26.6,49,29.94,10.0,WSW,4.6,-,N/A,,Mostly Cloudy,250,2012-10-11 01:55:00
9:15 PM,44.6,26.6,49,29.94,10.0,West,9.2,-,N/A,,Mostly Cloudy,270,2012-10-11 02:15:00
9:35 PM,44.6,28.4,53,29.94,10.0,WNW,15.0,19.6,N/A,,Mostly Cloudy,290,2012-10-11 02:35:00
9:55 PM,41.0,32.0,70,29.94,10.0,WNW,9.2,-,N/A,Rain,Rain,290,2012-10-11 02:55:00
10:15 PM,39.2,33.8,81,29.95,10.0,West,6.9,-,N/A,,Drizzle,280,2012-10-11 03:15:00
10:35 PM,39.2,33.8,81,29.94,10.0,WSW,6.9,-,N/A,,Drizzle,250,2012-10-11 03:35:00
10:55 PM,37.4,35.6,93,29.94,5.0,WSW,5.8,-,N/A,Rain,Rain,250,2012-10-11 03:55:00
11:15 PM,37.4,35.6,93,29.94,7.0,West,4.6,-,0.02,Rain,Light Rain,270,2012-10-11 04:15:00
11:35 PM,37.4,35.6,93,29.94,5.0,West,4.6,-,0.04,Rain,Light Rain,270,2012-10-11 04:35:00
11:55 PM,37.4,33.8,87,29.94,5.0,WNW,4.6,-,0.06,Rain,Rain,290,2012-10-11 04:55:00